IBE07DB EDDH-LEMD

Flight info

Callsign IBE07DB
Flight time N/A
Altitude 36000
Route WSN5G WSN N125 ITMIZ DCT CIV/N0450F350 DCT KOVIN DCT DUCRA UM728 RESMI DCT DEKOD/N0447F370 UN857 DISAK DCT ARKIP DCT ARNAV DCT LMG DCT UVELI DCT OSMOB DCT VAVIX DCT NETUK N857 ALEPO DCT VASUM N857 BANEV
Aircraft A320/M-SDE3FGHIRWY/LB1

Departure

Time 2026-04-24 15:25
Airport Hamburg Helmut Schmidt Airport (EDDH)

Arrival

Time N/A
Airport Adolfo Suárez Madrid–Barajas Airport (LEMD)
Time Latitude Longitude Altitude Speed Heading
2026-04-24 14:49 53.63167 10.00359 49 ft 0 kts 86°
2026-04-24 15:16 53.63167 10.00350 48 ft 4 kts 86°
2026-04-24 15:16 53.63165 10.00304 48 ft 4 kts 86°
2026-04-24 15:16 53.63163 10.00259 46 ft 4 kts 86°
2026-04-24 15:17 53.63162 10.00214 45 ft 4 kts 100°
2026-04-24 15:17 53.63172 10.00185 42 ft 4 kts 171°
2026-04-24 15:17 53.63192 10.00182 46 ft 2 kts 175°
2026-04-24 15:17 53.63194 10.00182 46 ft 0 kts 175°
2026-04-24 15:20 53.63183 10.00183 44 ft 4 kts 175°
2026-04-24 15:20 53.63131 10.00190 45 ft 11 kts 175°
2026-04-24 15:21 53.63064 10.00177 46 ft 8 kts 206°
2026-04-24 15:21 53.63022 10.00132 48 ft 6 kts 213°
2026-04-24 15:21 53.63018 10.00128 48 ft 0 kts 213°
2026-04-24 15:22 53.62987 10.00095 48 ft 11 kts 212°
2026-04-24 15:23 53.62919 9.99988 48 ft 0 kts 243°
2026-04-24 15:23 53.62884 9.99875 46 ft 14 kts 243°
2026-04-24 15:23 53.62863 9.99766 45 ft 9 kts 294°
2026-04-24 15:24 53.62980 9.99647 45 ft 48 kts 332°
2026-04-24 15:25 53.63989 9.98773 51 ft 142 kts 332°
2026-04-24 15:25 53.66292 9.96784 1372 ft 160 kts 329°
2026-04-24 15:26 53.69317 9.94219 3301 ft 164 kts 331°
2026-04-24 15:27 53.71593 9.89397 4375 ft 229 kts 267°
2026-04-24 15:27 53.69944 9.80747 6156 ft 273 kts 255°
2026-04-24 15:28 53.67322 9.68386 9372 ft 284 kts 257°
2026-04-24 15:29 53.66058 9.62001 10622 ft 302 kts 257°
2026-04-24 15:30 53.62579 9.51660 11511 ft 363 kts 238°
2026-04-24 15:31 53.57048 9.38841 13937 ft 375 kts 237°
2026-04-24 15:32 53.50356 9.23315 16584 ft 383 kts 237°
2026-04-24 15:33 53.44533 9.09894 18659 ft 391 kts 236°
2026-04-24 15:33 53.39670 8.98780 20067 ft 397 kts 236°
2026-04-24 15:34 53.36383 8.91285 20992 ft 401 kts 236°
2026-04-24 15:35 53.32797 8.78764 22333 ft 401 kts 252°
2026-04-24 15:35 53.30861 8.69962 23213 ft 405 kts 251°
2026-04-24 15:35 53.29876 8.65544 23634 ft 407 kts 251°
2026-04-24 15:36 53.28893 8.61112 24012 ft 408 kts 251°
2026-04-24 15:36 53.26930 8.52169 24705 ft 411 kts 251°
2026-04-24 15:36 53.25962 8.47670 25051 ft 412 kts 252°
2026-04-24 15:37 53.25060 8.43123 25395 ft 413 kts 253°
2026-04-24 15:37 53.24207 8.38535 25726 ft 414 kts 254°
2026-04-24 15:37 53.23371 8.33917 26077 ft 416 kts 254°
2026-04-24 15:37 53.22535 8.29297 26398 ft 417 kts 254°
2026-04-24 15:38 53.21682 8.24663 26734 ft 419 kts 253°
2026-04-24 15:38 53.20811 8.20026 27039 ft 420 kts 253°
2026-04-24 15:38 53.19922 8.15374 27359 ft 421 kts 253°
2026-04-24 15:38 53.19026 8.10711 27648 ft 423 kts 253°
2026-04-24 15:39 53.18130 8.06029 27938 ft 424 kts 253°
2026-04-24 15:39 53.17245 8.01345 28228 ft 425 kts 253°
2026-04-24 15:39 53.16356 7.96630 28521 ft 426 kts 253°
2026-04-24 15:39 53.15466 7.91915 28807 ft 428 kts 253°
2026-04-24 15:40 53.14572 7.87189 29105 ft 428 kts 253°
2026-04-24 15:40 53.13677 7.82472 29511 ft 426 kts 252°
2026-04-24 15:40 53.12781 7.77767 29931 ft 424 kts 252°
2026-04-24 15:40 53.11886 7.73096 30340 ft 423 kts 252°
2026-04-24 15:41 53.10787 7.68582 30676 ft 421 kts 244°
2026-04-24 15:41 53.09251 7.64436 31029 ft 421 kts 234°
2026-04-24 15:41 53.07322 7.60769 31435 ft 420 kts 227°
2026-04-24 15:41 53.05246 7.57385 31801 ft 418 kts 227°
2026-04-24 15:42 53.03172 7.54001 32142 ft 416 kts 227°
2026-04-24 15:42 53.01113 7.50640 32466 ft 414 kts 227°
2026-04-24 15:42 52.99057 7.47289 32792 ft 413 kts 227°
2026-04-24 15:42 52.97011 7.43952 33103 ft 412 kts 227°
2026-04-24 15:43 52.94972 7.40629 33430 ft 411 kts 227°
2026-04-24 15:43 52.92930 7.37314 33744 ft 410 kts 227°
2026-04-24 15:43 52.90892 7.34017 34057 ft 409 kts 227°
2026-04-24 15:43 52.88884 7.30771 34347 ft 408 kts 227°
2026-04-24 15:44 52.86829 7.27448 34602 ft 408 kts 227°
2026-04-24 15:44 52.84826 7.24221 34830 ft 408 kts 227°
2026-04-24 15:44 52.82792 7.20947 35062 ft 408 kts 227°
2026-04-24 15:44 52.80760 7.17681 35268 ft 408 kts 227°
2026-04-24 15:45 52.78723 7.14417 35466 ft 408 kts 227°
2026-04-24 15:45 52.76687 7.11155 35633 ft 409 kts 227°
2026-04-24 15:45 52.74638 7.07874 35825 ft 409 kts 227°
2026-04-24 15:45 52.72599 7.04609 36012 ft 409 kts 227°
2026-04-24 15:46 52.70554 7.01337 36185 ft 409 kts 227°
2026-04-24 15:46 52.68505 6.98065 36232 ft 411 kts 227°
2026-04-24 15:46 52.64396 6.91510 36235 ft 411 kts 227°
2026-04-24 15:47 52.60338 6.85062 36238 ft 411 kts 227°
2026-04-24 15:47 52.56158 6.78454 36227 ft 411 kts 227°
2026-04-24 15:48 52.52027 6.71931 36245 ft 412 kts 227°
2026-04-24 15:48 52.47887 6.65408 36244 ft 412 kts 227°
2026-04-24 15:49 52.43747 6.58901 36240 ft 412 kts 227°
2026-04-24 15:49 52.39603 6.52401 36247 ft 412 kts 227°
2026-04-24 15:50 52.35452 6.45916 36241 ft 412 kts 227°
2026-04-24 15:50 52.31294 6.39451 36227 ft 413 kts 226°
2026-04-24 15:51 52.27134 6.32993 36236 ft 413 kts 226°
2026-04-24 15:51 52.22970 6.26539 36238 ft 413 kts 226°
2026-04-24 15:52 52.18802 6.20100 36240 ft 413 kts 226°
2026-04-24 15:52 52.14628 6.13664 36240 ft 413 kts 226°
2026-04-24 15:53 52.10459 6.07242 36220 ft 413 kts 226°
2026-04-24 15:53 52.06270 6.00820 36223 ft 414 kts 226°
2026-04-24 15:54 52.02064 5.94409 36232 ft 415 kts 225°
2026-04-24 15:54 51.97857 5.88007 36235 ft 415 kts 226°
2026-04-24 15:55 51.93647 5.81600 36247 ft 415 kts 225°
2026-04-24 15:55 51.89435 5.75216 36230 ft 415 kts 225°
2026-04-24 15:56 51.85214 5.68837 36231 ft 415 kts 225°
2026-04-24 15:56 51.80991 5.62458 36233 ft 416 kts 225°
2026-04-24 15:57 51.76790 5.56126 36238 ft 416 kts 225°
2026-04-24 15:57 51.72548 5.49774 36239 ft 416 kts 225°
2026-04-24 15:58 51.68301 5.43435 36216 ft 416 kts 225°
2026-04-24 15:58 51.64061 5.37088 36220 ft 417 kts 225°
2026-04-24 15:59 51.59773 5.30694 36224 ft 418 kts 225°
2026-04-24 15:59 51.55503 5.24363 36222 ft 418 kts 225°
2026-04-24 16:00 51.51248 5.18073 36226 ft 418 kts 225°
2026-04-24 16:00 51.46969 5.11763 36257 ft 418 kts 225°
2026-04-24 16:01 51.42682 5.05455 36236 ft 419 kts 224°
2026-04-24 16:01 51.38382 4.99141 36240 ft 420 kts 224°
2026-04-24 16:02 51.34069 4.92832 36242 ft 420 kts 224°
2026-04-24 16:02 51.29749 4.86519 36227 ft 421 kts 224°
2026-04-24 16:03 51.25422 4.80215 36226 ft 421 kts 224°
2026-04-24 16:03 51.21090 4.73920 36228 ft 421 kts 224°
2026-04-24 16:04 51.16749 4.67628 36232 ft 422 kts 224°
2026-04-24 16:04 51.12392 4.61344 36226 ft 423 kts 224°
2026-04-24 16:05 51.05848 4.51924 36239 ft 423 kts 224°
2026-04-24 16:06 50.99301 4.42510 36238 ft 423 kts 224°
2026-04-24 16:07 50.92734 4.33138 36239 ft 423 kts 224°
2026-04-24 16:07 50.86159 4.23781 36240 ft 424 kts 224°
2026-04-24 16:08 50.79579 4.14451 36225 ft 424 kts 223°
2026-04-24 16:09 50.72974 4.05149 36232 ft 425 kts 223°
2026-04-24 16:09 50.68560 3.98942 36234 ft 425 kts 223°
2026-04-24 16:10 50.61940 3.89650 36607 ft 423 kts 223°
2026-04-24 16:11 50.57435 3.83742 37112 ft 421 kts 214°
2026-04-24 16:11 50.54866 3.81514 37229 ft 425 kts 206°
2026-04-24 16:11 50.52144 3.79652 37246 ft 427 kts 205°
2026-04-24 16:12 50.43946 3.74107 37238 ft 428 kts 205°
2026-04-24 16:13 50.35752 3.68559 37234 ft 429 kts 205°
2026-04-24 16:14 50.24741 3.61101 37236 ft 432 kts 205°
2026-04-24 16:14 50.17392 3.56151 37234 ft 432 kts 205°
2026-04-24 16:15 50.09109 3.50604 37232 ft 432 kts 205°
2026-04-24 16:16 50.00844 3.45072 37240 ft 431 kts 205°
2026-04-24 16:17 49.87076 3.35928 37231 ft 430 kts 204°
2026-04-24 16:18 49.76066 3.28653 37227 ft 430 kts 204°
2026-04-24 16:19 49.67814 3.23219 37211 ft 430 kts 204°
2026-04-24 16:20 49.59552 3.17807 37205 ft 430 kts 204°
2026-04-24 16:20 49.51286 3.12409 37222 ft 431 kts 204°
2026-04-24 16:21 49.43533 3.05502 37194 ft 430 kts 213°
2026-04-24 16:22 49.38536 3.00425 37195 ft 431 kts 213°
2026-04-24 16:22 49.31034 2.92823 37190 ft 431 kts 213°
2026-04-24 16:23 49.26019 2.87763 37186 ft 431 kts 213°
2026-04-24 16:24 49.18494 2.80197 37182 ft 432 kts 213°
2026-04-24 16:24 49.13470 2.75156 37182 ft 432 kts 213°
2026-04-24 16:25 49.08444 2.70131 37189 ft 432 kts 213°
2026-04-24 16:25 49.03413 2.65114 37185 ft 432 kts 212°
2026-04-24 16:26 48.95841 2.57571 37173 ft 435 kts 213°
2026-04-24 16:27 48.88222 2.49997 37171 ft 437 kts 212°
2026-04-24 16:27 48.83127 2.44960 37153 ft 438 kts 212°
2026-04-24 16:28 48.78018 2.39927 37158 ft 438 kts 213°
2026-04-24 16:28 48.70336 2.32380 37157 ft 438 kts 212°
2026-04-24 16:29 48.65218 2.27359 37162 ft 439 kts 212°
2026-04-24 16:30 48.54574 2.18509 37156 ft 438 kts 194°
2026-04-24 16:30 48.48610 2.16544 37149 ft 439 kts 192°
2026-04-24 16:31 48.42637 2.14611 37137 ft 440 kts 192°
2026-04-24 16:31 48.36627 2.12664 37127 ft 443 kts 192°
2026-04-24 16:32 48.30569 2.10779 37127 ft 446 kts 187°
2026-04-24 16:32 48.24381 2.10829 37126 ft 446 kts 171°
2026-04-24 16:33 48.18227 2.12157 37133 ft 448 kts 172°
2026-04-24 16:33 48.12012 2.12831 37135 ft 449 kts 184°
2026-04-24 16:34 48.05807 2.11694 37139 ft 450 kts 187°
2026-04-24 16:34 47.99586 2.10513 37148 ft 451 kts 187°
2026-04-24 16:35 47.93347 2.09328 37149 ft 452 kts 187°
2026-04-24 16:35 47.87100 2.08137 37154 ft 453 kts 187°
2026-04-24 16:36 47.80847 2.06952 37117 ft 453 kts 187°
2026-04-24 16:36 47.74587 2.05770 37115 ft 454 kts 187°
2026-04-24 16:37 47.68313 2.04578 37108 ft 455 kts 187°
2026-04-24 16:37 47.62093 2.02867 37102 ft 455 kts 199°
2026-04-24 16:38 47.56184 1.99500 37105 ft 455 kts 202°
2026-04-24 16:38 47.50279 1.96075 37098 ft 456 kts 202°
2026-04-24 16:39 47.44361 1.92656 37097 ft 457 kts 202°
2026-04-24 16:39 47.38444 1.89233 37109 ft 457 kts 202°
2026-04-24 16:40 47.32529 1.85826 37122 ft 456 kts 202°
2026-04-24 16:40 47.26614 1.82439 37128 ft 456 kts 202°
2026-04-24 16:41 47.20710 1.79063 37128 ft 455 kts 202°
2026-04-24 16:41 47.14808 1.75713 37114 ft 454 kts 202°
2026-04-24 16:42 47.08911 1.72394 37105 ft 453 kts 203°
2026-04-24 16:42 47.03027 1.69099 37118 ft 453 kts 203°
2026-04-24 16:43 46.97146 1.65809 37117 ft 452 kts 203°
2026-04-24 16:43 46.91273 1.62532 37106 ft 451 kts 203°
2026-04-24 16:44 46.85419 1.59261 37127 ft 450 kts 203°
2026-04-24 16:44 46.79574 1.56003 37127 ft 449 kts 203°
2026-04-24 16:45 46.73739 1.52758 37122 ft 449 kts 203°
2026-04-24 16:45 46.67910 1.49526 37109 ft 448 kts 203°
2026-04-24 16:46 46.62081 1.46302 37103 ft 448 kts 203°
2026-04-24 16:46 46.56251 1.43095 37097 ft 448 kts 203°
2026-04-24 16:47 46.50465 1.39913 37110 ft 447 kts 203°
2026-04-24 16:47 46.44656 1.36717 37111 ft 446 kts 203°
2026-04-24 16:48 46.38855 1.33531 37112 ft 446 kts 203°
2026-04-24 16:48 46.33056 1.30362 37106 ft 445 kts 203°
2026-04-24 16:49 46.27233 1.27204 37107 ft 444 kts 203°
2026-04-24 16:49 46.21494 1.24092 37110 ft 443 kts 203°
2026-04-24 16:50 46.15728 1.20964 37103 ft 442 kts 203°
2026-04-24 16:50 46.09971 1.17832 37115 ft 441 kts 203°
2026-04-24 16:51 46.04232 1.14733 37125 ft 440 kts 203°
2026-04-24 16:51 45.98503 1.11645 37125 ft 439 kts 203°
2026-04-24 16:52 45.92781 1.08563 37119 ft 438 kts 202°
2026-04-24 16:52 45.87074 1.05499 37122 ft 438 kts 202°
2026-04-24 16:53 45.81511 1.02021 37119 ft 434 kts 213°
2026-04-24 16:53 45.76434 0.97362 37109 ft 433 kts 215°
2026-04-24 16:54 45.71409 0.92613 37090 ft 433 kts 215°
2026-04-24 16:54 45.66387 0.87863 37088 ft 432 kts 215°
2026-04-24 16:55 45.61355 0.83158 37081 ft 432 kts 215°
2026-04-24 16:55 45.56315 0.78474 37076 ft 432 kts 214°
2026-04-24 16:56 45.51278 0.73792 37078 ft 431 kts 214°
2026-04-24 16:56 45.46293 0.69155 37084 ft 431 kts 214°
2026-04-24 16:57 45.41277 0.64497 37074 ft 430 kts 214°
2026-04-24 16:57 45.36255 0.59858 37065 ft 430 kts 214°
2026-04-24 16:58 45.31237 0.55237 37065 ft 430 kts 214°
2026-04-24 16:58 45.27037 0.51376 37063 ft 429 kts 214°
2026-04-24 16:59 45.22023 0.46769 37062 ft 429 kts 214°
2026-04-24 17:00 45.14509 0.39871 37040 ft 429 kts 214°
2026-04-24 17:00 45.06997 0.33018 37056 ft 428 kts 213°
2026-04-24 17:01 44.99525 0.26209 37064 ft 427 kts 213°
2026-04-24 17:02 44.91990 0.19366 37056 ft 427 kts 213°
2026-04-24 17:02 44.87019 0.14872 37053 ft 427 kts 213°
2026-04-24 17:03 44.79513 0.08098 37050 ft 427 kts 213°
2026-04-24 17:04 44.74478 0.03561 37047 ft 427 kts 213°
2026-04-24 17:04 44.66995 -0.03154 37055 ft 427 kts 213°
2026-04-24 17:05 44.61995 -0.07636 37056 ft 427 kts 213°
2026-04-24 17:06 44.54491 -0.14352 37051 ft 426 kts 213°
2026-04-24 17:06 44.46992 -0.21038 37051 ft 426 kts 212°
2026-04-24 17:07 44.41983 -0.25476 37047 ft 426 kts 212°
2026-04-24 17:08 44.31975 -0.34339 37050 ft 426 kts 212°
2026-04-24 17:08 44.26969 -0.38768 37050 ft 426 kts 212°
2026-04-24 17:09 44.16948 -0.47594 37051 ft 426 kts 212°
2026-04-24 17:10 44.06907 -0.56390 37056 ft 426 kts 212°
2026-04-24 17:12 43.86804 -0.73917 37058 ft 427 kts 212°